VOZ886 YSSY-YMML

Flight info

Callsign VOZ886
Flight time 1h 10m
Altitude 38000
Route MARUB7/34R WOL H65 LEECE Q29 ML
Aircraft B738/M-SDE2E3FGHIRWXY/LB1

Departure

Time 2026-04-26 10:02
Airport Sydney Kingsford Smith International Airport (YSSY)

Arrival

Time 2026-04-26 11:12
Airport Melbourne Airport (YMML)
Time Latitude Longitude Altitude Speed Heading
2026-04-26 09:28 -33.93598 151.17984 28 ft 0 kts 281°
2026-04-26 09:48 -33.93599 151.17993 28 ft 2 kts 280°
2026-04-26 09:48 -33.93602 151.18012 28 ft 2 kts 281°
2026-04-26 09:48 -33.93604 151.18027 28 ft 0 kts 281°
2026-04-26 09:48 -33.93605 151.18041 28 ft 2 kts 249°
2026-04-26 09:49 -33.93596 151.18054 28 ft 2 kts 208°
2026-04-26 09:49 -33.93589 151.18057 28 ft 0 kts 187°
2026-04-26 09:49 -33.93601 151.18054 28 ft 5 kts 187°
2026-04-26 09:49 -33.93647 151.18051 28 ft 5 kts 182°
2026-04-26 09:50 -33.93668 151.18051 28 ft 0 kts 183°
2026-04-26 09:50 -33.93674 151.18051 28 ft 1 kts 171°
2026-04-26 09:50 -33.93675 151.18051 28 ft 0 kts 171°
2026-04-26 09:52 -33.93697 151.18056 28 ft 6 kts 168°
2026-04-26 09:53 -33.93761 151.18060 28 ft 11 kts 208°
2026-04-26 09:53 -33.93795 151.17972 28 ft 13 kts 254°
2026-04-26 09:53 -33.93822 151.17856 28 ft 14 kts 254°
2026-04-26 09:53 -33.93880 151.17776 28 ft 14 kts 176°
2026-04-26 09:54 -33.93995 151.17807 28 ft 19 kts 169°
2026-04-26 09:54 -33.94149 151.17845 28 ft 23 kts 168°
2026-04-26 09:54 -33.94308 151.17885 28 ft 23 kts 167°
2026-04-26 09:54 -33.94462 151.17902 28 ft 20 kts 206°
2026-04-26 09:55 -33.94584 151.17899 28 ft 17 kts 168°
2026-04-26 09:55 -33.94701 151.17928 28 ft 17 kts 167°
2026-04-26 09:55 -33.94831 151.17963 28 ft 20 kts 168°
2026-04-26 09:55 -33.94973 151.17999 28 ft 20 kts 168°
2026-04-26 09:56 -33.95088 151.18043 28 ft 15 kts 134°
2026-04-26 09:56 -33.95090 151.18164 28 ft 14 kts 77°
2026-04-26 09:56 -33.95068 151.18283 28 ft 14 kts 78°
2026-04-26 09:56 -33.95049 151.18393 28 ft 10 kts 78°
2026-04-26 09:57 -33.95045 151.18413 28 ft 0 kts 77°
2026-04-26 09:57 -33.95041 151.18449 28 ft 8 kts 91°
2026-04-26 09:57 -33.95091 151.18520 28 ft 14 kts 147°
2026-04-26 09:57 -33.95183 151.18619 28 ft 20 kts 137°
2026-04-26 09:58 -33.95321 151.18721 28 ft 24 kts 163°
2026-04-26 09:58 -33.95484 151.18765 28 ft 23 kts 167°
2026-04-26 09:58 -33.95647 151.18808 28 ft 23 kts 168°
2026-04-26 09:58 -33.95802 151.18848 27 ft 22 kts 168°
2026-04-26 09:59 -33.95957 151.18887 28 ft 22 kts 168°
2026-04-26 09:59 -33.96105 151.18926 28 ft 21 kts 168°
2026-04-26 09:59 -33.96248 151.18964 28 ft 20 kts 168°
2026-04-26 09:59 -33.96390 151.19000 28 ft 20 kts 167°
2026-04-26 10:00 -33.96529 151.19037 28 ft 21 kts 167°
2026-04-26 10:00 -33.96682 151.19075 28 ft 22 kts 173°
2026-04-26 10:00 -33.96835 151.19072 28 ft 21 kts 168°
2026-04-26 10:00 -33.96983 151.19110 27 ft 21 kts 168°
2026-04-26 10:01 -33.97061 151.19171 27 ft 12 kts 82°
2026-04-26 10:01 -33.97042 151.19272 28 ft 12 kts 78°
2026-04-26 10:01 -33.97016 151.19354 28 ft 7 kts 30°
2026-04-26 10:01 -33.96940 151.19344 28 ft 25 kts 348°
2026-04-26 10:02 -33.96508 151.19232 28 ft 97 kts 347°
2026-04-26 10:02 -33.95658 151.19011 29 ft 153 kts 348°
2026-04-26 10:02 -33.94563 151.18727 523 ft 161 kts 351°
2026-04-26 10:02 -33.93488 151.18718 1204 ft 157 kts 22°
2026-04-26 10:03 -33.92641 151.19524 1688 ft 161 kts 56°
2026-04-26 10:03 -33.92279 151.20824 2110 ft 173 kts 86°
2026-04-26 10:03 -33.92563 151.22287 2521 ft 186 kts 111°
2026-04-26 10:03 -33.93072 151.23700 3063 ft 188 kts 110°
2026-04-26 10:04 -33.93454 151.25295 3252 ft 209 kts 94°
2026-04-26 10:04 -33.93543 151.27089 3600 ft 224 kts 89°
2026-04-26 10:04 -33.93552 151.29009 4162 ft 232 kts 88°
2026-04-26 10:04 -33.93549 151.31004 4641 ft 243 kts 88°
2026-04-26 10:05 -33.93533 151.33034 5259 ft 248 kts 88°
2026-04-26 10:05 -33.93505 151.35095 5907 ft 251 kts 88°
2026-04-26 10:05 -33.93464 151.37219 6597 ft 253 kts 88°
2026-04-26 10:05 -33.93416 151.39322 7268 ft 256 kts 88°
2026-04-26 10:06 -33.93366 151.41464 7996 ft 257 kts 88°
2026-04-26 10:06 -33.93316 151.43607 8677 ft 260 kts 88°
2026-04-26 10:06 -33.93265 151.45764 9368 ft 262 kts 88°
2026-04-26 10:06 -33.93211 151.47937 10076 ft 264 kts 88°
2026-04-26 10:07 -33.93247 151.50142 10742 ft 267 kts 99°
2026-04-26 10:07 -33.93874 151.52257 11406 ft 272 kts 123°
2026-04-26 10:07 -33.95227 151.53803 12073 ft 277 kts 152°
2026-04-26 10:07 -33.97091 151.54474 12743 ft 281 kts 175°
2026-04-26 10:08 -33.99022 151.54274 13396 ft 286 kts 197°
2026-04-26 10:08 -34.00762 151.53096 14046 ft 290 kts 222°
2026-04-26 10:08 -34.02172 151.51338 14602 ft 298 kts 229°
2026-04-26 10:08 -34.03531 151.49396 14961 ft 313 kts 230°
2026-04-26 10:09 -34.04987 151.47319 15352 ft 329 kts 229°
2026-04-26 10:09 -34.06511 151.45213 15730 ft 343 kts 228°
2026-04-26 10:09 -34.08149 151.43004 16060 ft 359 kts 228°
2026-04-26 10:09 -34.09848 151.40738 16418 ft 373 kts 227°
2026-04-26 10:10 -34.11609 151.38402 17045 ft 379 kts 227°
2026-04-26 10:10 -34.13400 151.36028 17660 ft 385 kts 227°
2026-04-26 10:10 -34.15188 151.33653 18317 ft 389 kts 227°
2026-04-26 10:10 -34.17003 151.31239 18991 ft 392 kts 227°
2026-04-26 10:11 -34.18834 151.28801 19634 ft 395 kts 227°
2026-04-26 10:11 -34.20686 151.26332 20258 ft 399 kts 227°
2026-04-26 10:11 -34.22570 151.23817 20862 ft 403 kts 227°
2026-04-26 10:11 -34.24440 151.21321 21485 ft 405 kts 227°
2026-04-26 10:12 -34.26324 151.18802 22049 ft 409 kts 227°
2026-04-26 10:12 -34.28245 151.16231 22620 ft 412 kts 227°
2026-04-26 10:12 -34.30162 151.13664 23172 ft 415 kts 227°
2026-04-26 10:12 -34.32103 151.11064 23721 ft 418 kts 227°
2026-04-26 10:13 -34.34056 151.08444 24280 ft 421 kts 227°
2026-04-26 10:13 -34.36018 151.05811 24800 ft 424 kts 227°
2026-04-26 10:13 -34.37983 151.03171 25305 ft 426 kts 227°
2026-04-26 10:13 -34.39964 151.00508 25794 ft 430 kts 227°
2026-04-26 10:14 -34.41962 150.97819 26288 ft 432 kts 227°
2026-04-26 10:14 -34.43974 150.95110 26761 ft 435 kts 227°
2026-04-26 10:14 -34.46004 150.92375 27237 ft 438 kts 227°
2026-04-26 10:14 -34.48030 150.89642 27689 ft 440 kts 227°
2026-04-26 10:15 -34.50091 150.86862 28137 ft 443 kts 227°
2026-04-26 10:15 -34.52153 150.84076 28562 ft 446 kts 227°
2026-04-26 10:15 -34.54239 150.81256 28993 ft 448 kts 227°
2026-04-26 10:15 -34.56283 150.78433 29413 ft 451 kts 229°
2026-04-26 10:16 -34.58247 150.75446 29837 ft 453 kts 232°
2026-04-26 10:16 -34.60117 150.72406 30241 ft 455 kts 233°
2026-04-26 10:16 -34.61988 150.69263 30667 ft 457 kts 234°
2026-04-26 10:16 -34.63806 150.66171 31266 ft 453 kts 234°
2026-04-26 10:17 -34.65638 150.63054 31961 ft 448 kts 234°
2026-04-26 10:17 -34.67449 150.59978 32482 ft 446 kts 233°
2026-04-26 10:17 -34.69253 150.56923 33002 ft 443 kts 233°
2026-04-26 10:17 -34.71083 150.53838 33521 ft 441 kts 233°
2026-04-26 10:18 -34.72880 150.50816 33985 ft 439 kts 233°
2026-04-26 10:18 -34.74681 150.47792 34482 ft 437 kts 233°
2026-04-26 10:18 -34.76469 150.44797 34969 ft 436 kts 233°
2026-04-26 10:18 -34.78286 150.41754 35409 ft 435 kts 233°
2026-04-26 10:19 -34.80063 150.38777 35857 ft 433 kts 233°
2026-04-26 10:19 -34.81818 150.35837 36306 ft 432 kts 233°
2026-04-26 10:19 -34.83600 150.32852 36684 ft 431 kts 234°
2026-04-26 10:19 -34.85381 150.29866 37041 ft 431 kts 234°
2026-04-26 10:20 -34.87137 150.26920 37336 ft 431 kts 234°
2026-04-26 10:20 -34.88305 150.24956 37556 ft 431 kts 234°
2026-04-26 10:20 -34.90644 150.21022 37938 ft 431 kts 234°
2026-04-26 10:20 -34.92411 150.18050 38217 ft 431 kts 234°
2026-04-26 10:21 -34.95934 150.12115 38223 ft 431 kts 234°
2026-04-26 10:21 -34.99427 150.06221 38228 ft 429 kts 234°
2026-04-26 10:22 -35.02936 150.00290 38231 ft 430 kts 234°
2026-04-26 10:22 -35.06417 149.94397 38236 ft 429 kts 234°
2026-04-26 10:23 -35.09885 149.88515 38240 ft 428 kts 234°
2026-04-26 10:23 -35.13360 149.82611 38245 ft 429 kts 234°
2026-04-26 10:24 -35.16839 149.76691 38249 ft 428 kts 234°
2026-04-26 10:24 -35.20318 149.70761 38252 ft 428 kts 234°
2026-04-26 10:25 -35.23764 149.64876 38255 ft 426 kts 234°
2026-04-26 10:25 -35.27206 149.58989 38262 ft 427 kts 234°
2026-04-26 10:26 -35.30656 149.53076 38269 ft 427 kts 234°
2026-04-26 10:26 -35.34087 149.47188 38272 ft 425 kts 234°
2026-04-26 10:27 -35.37530 149.41269 38267 ft 426 kts 234°
2026-04-26 10:27 -35.40940 149.35397 38266 ft 425 kts 234°
2026-04-26 10:28 -35.44370 149.29483 38262 ft 426 kts 235°
2026-04-26 10:28 -35.47798 149.23558 38267 ft 424 kts 235°
2026-04-26 10:29 -35.51210 149.17654 38275 ft 424 kts 235°
2026-04-26 10:29 -35.54597 149.11781 38275 ft 423 kts 235°
2026-04-26 10:30 -35.57991 149.05888 38281 ft 424 kts 235°
2026-04-26 10:30 -35.61390 148.99976 38283 ft 423 kts 235°
2026-04-26 10:31 -35.64788 148.94055 38289 ft 422 kts 235°
2026-04-26 10:31 -35.68176 148.88142 38299 ft 421 kts 235°
2026-04-26 10:32 -35.71529 148.82281 38312 ft 423 kts 235°
2026-04-26 10:32 -35.74927 148.76334 38320 ft 421 kts 235°
2026-04-26 10:33 -35.78276 148.70458 38317 ft 422 kts 235°
2026-04-26 10:33 -35.81646 148.64535 38316 ft 422 kts 235°
2026-04-26 10:34 -35.85009 148.58615 38315 ft 421 kts 235°
2026-04-26 10:34 -35.88350 148.52725 38318 ft 419 kts 235°
2026-04-26 10:35 -35.91675 148.46837 38325 ft 419 kts 235°
2026-04-26 10:35 -35.95006 148.40916 38323 ft 420 kts 235°
2026-04-26 10:36 -35.98308 148.35039 38322 ft 419 kts 235°
2026-04-26 10:36 -36.01647 148.29085 38318 ft 419 kts 236°
2026-04-26 10:37 -36.04955 148.23180 38313 ft 420 kts 236°
2026-04-26 10:37 -36.08268 148.17255 38301 ft 419 kts 236°
2026-04-26 10:38 -36.11572 148.11334 38293 ft 420 kts 236°
2026-04-26 10:38 -36.14909 148.05359 38289 ft 419 kts 236°
2026-04-26 10:39 -36.18231 147.99414 38284 ft 418 kts 236°
2026-04-26 10:39 -36.21518 147.93524 38283 ft 417 kts 235°
2026-04-26 10:40 -36.24838 147.87564 38283 ft 417 kts 235°
2026-04-26 10:40 -36.28114 147.81671 38290 ft 417 kts 235°
2026-04-26 10:41 -36.31391 147.75764 38292 ft 417 kts 235°
2026-04-26 10:41 -36.34662 147.69858 38291 ft 417 kts 235°
2026-04-26 10:42 -36.37938 147.63919 38287 ft 417 kts 235°
2026-04-26 10:42 -36.41199 147.57994 38290 ft 415 kts 235°
2026-04-26 10:43 -36.44450 147.52080 38286 ft 416 kts 235°
2026-04-26 10:43 -36.47705 147.46146 38279 ft 414 kts 235°
2026-04-26 10:44 -36.50932 147.40256 38280 ft 416 kts 235°
2026-04-26 10:44 -36.54196 147.34286 38279 ft 416 kts 236°
2026-04-26 10:45 -36.57439 147.28346 38289 ft 415 kts 236°
2026-04-26 10:45 -36.60666 147.22424 38285 ft 415 kts 236°
2026-04-26 10:46 -36.63903 147.16473 38283 ft 414 kts 236°
2026-04-26 10:46 -36.67120 147.10548 38287 ft 415 kts 235°
2026-04-26 10:47 -36.70343 147.04602 38298 ft 415 kts 236°
2026-04-26 10:47 -36.73565 146.98647 38292 ft 415 kts 235°
2026-04-26 10:48 -36.76773 146.92708 37860 ft 404 kts 236°
2026-04-26 10:48 -36.78332 146.89818 37387 ft 399 kts 236°
2026-04-26 10:48 -36.79871 146.86964 36847 ft 397 kts 236°
2026-04-26 10:49 -36.81405 146.84117 36287 ft 398 kts 237°
2026-04-26 10:49 -36.82962 146.81223 35653 ft 403 kts 237°
2026-04-26 10:49 -36.84532 146.78301 35027 ft 409 kts 237°
2026-04-26 10:49 -36.86110 146.75360 34350 ft 417 kts 238°
2026-04-26 10:50 -36.87741 146.72317 33647 ft 425 kts 238°
2026-04-26 10:50 -36.88854 146.70241 33167 ft 425 kts 238°
2026-04-26 10:50 -36.91040 146.66161 32445 ft 420 kts 238°
2026-04-26 10:50 -36.92632 146.63188 32003 ft 414 kts 238°
2026-04-26 10:51 -36.94221 146.60220 31525 ft 410 kts 238°
2026-04-26 10:51 -36.97364 146.54340 30561 ft 402 kts 238°
2026-04-26 10:51 -36.98899 146.51463 30083 ft 398 kts 238°
2026-04-26 10:52 -37.00411 146.48627 29606 ft 394 kts 238°
2026-04-26 10:52 -37.01936 146.45763 29132 ft 390 kts 238°
2026-04-26 10:52 -37.03428 146.42956 28658 ft 395 kts 238°
2026-04-26 10:52 -37.04971 146.40047 28159 ft 405 kts 238°
2026-04-26 10:53 -37.06519 146.37126 27651 ft 404 kts 238°
2026-04-26 10:53 -37.08063 146.34218 27158 ft 400 kts 239°
2026-04-26 10:53 -37.09602 146.31317 26668 ft 395 kts 239°
2026-04-26 10:54 -37.12592 146.25671 25677 ft 388 kts 239°
2026-04-26 10:54 -37.14085 146.22849 25189 ft 384 kts 239°
2026-04-26 10:54 -37.15543 146.20090 24722 ft 380 kts 239°
2026-04-26 10:54 -37.16996 146.17339 24238 ft 376 kts 239°
2026-04-26 10:55 -37.18261 146.14943 23823 ft 373 kts 239°
2026-04-26 10:55 -37.19214 146.13135 23501 ft 371 kts 239°
2026-04-26 10:55 -37.20612 146.10481 23039 ft 367 kts 239°
2026-04-26 10:55 -37.22012 146.07823 22578 ft 364 kts 239°
2026-04-26 10:56 -37.23403 146.05177 22107 ft 361 kts 240°
2026-04-26 10:56 -37.24762 146.02591 21644 ft 359 kts 240°
2026-04-26 10:56 -37.26128 145.99992 21188 ft 356 kts 240°
2026-04-26 10:56 -37.27484 145.97409 20715 ft 353 kts 240°
2026-04-26 10:57 -37.28832 145.94840 20248 ft 351 kts 241°
2026-04-26 10:57 -37.30157 145.92311 19783 ft 349 kts 242°
2026-04-26 10:57 -37.31484 145.89777 19317 ft 346 kts 242°
2026-04-26 10:57 -37.32807 145.87254 18847 ft 344 kts 242°
2026-04-26 10:58 -37.34114 145.84764 18377 ft 343 kts 242°
2026-04-26 10:58 -37.35422 145.82268 17900 ft 341 kts 242°
2026-04-26 10:58 -37.36710 145.79807 17456 ft 339 kts 242°
2026-04-26 10:58 -37.38007 145.77330 16977 ft 337 kts 242°
2026-04-26 10:59 -37.39272 145.74915 16523 ft 335 kts 242°
2026-04-26 10:59 -37.40548 145.72473 16064 ft 333 kts 242°
2026-04-26 10:59 -37.41819 145.70042 15621 ft 330 kts 242°
2026-04-26 10:59 -37.43068 145.67650 15183 ft 328 kts 242°
2026-04-26 11:00 -37.44197 145.65190 14748 ft 321 kts 250°
2026-04-26 11:00 -37.44880 145.62578 14324 ft 311 kts 264°
2026-04-26 11:00 -37.45067 145.59924 13915 ft 304 kts 272°
2026-04-26 11:00 -37.45064 145.57256 13444 ft 303 kts 275°
2026-04-26 11:01 -37.45014 145.54629 13012 ft 301 kts 275°
2026-04-26 11:01 -37.44960 145.52016 12591 ft 299 kts 275°
2026-04-26 11:01 -37.44916 145.49451 12197 ft 296 kts 274°
2026-04-26 11:01 -37.44880 145.46869 11764 ft 295 kts 274°
2026-04-26 11:02 -37.44849 145.44295 11340 ft 294 kts 274°
2026-04-26 11:02 -37.44820 145.41721 10917 ft 292 kts 273°
2026-04-26 11:02 -37.44791 145.39204 10538 ft 290 kts 273°
2026-04-26 11:02 -37.44760 145.36661 10195 ft 286 kts 273°
2026-04-26 11:03 -37.44732 145.34207 10046 ft 275 kts 274°
2026-04-26 11:03 -37.44704 145.31844 9756 ft 272 kts 274°
2026-04-26 11:03 -37.44672 145.29481 9360 ft 272 kts 274°
2026-04-26 11:03 -37.44639 145.27101 8970 ft 271 kts 274°
2026-04-26 11:04 -37.44606 145.24738 8599 ft 270 kts 274°
2026-04-26 11:04 -37.44574 145.22394 8234 ft 269 kts 274°
2026-04-26 11:04 -37.44541 145.20053 7883 ft 267 kts 274°
2026-04-26 11:04 -37.44510 145.17734 7508 ft 267 kts 273°
2026-04-26 11:05 -37.44475 145.15328 7150 ft 284 kts 273°
2026-04-26 11:05 -37.44435 145.12787 6760 ft 299 kts 273°
2026-04-26 11:05 -37.44395 145.10150 6365 ft 299 kts 273°
2026-04-26 11:05 -37.44358 145.07552 5950 ft 297 kts 273°
2026-04-26 11:06 -37.44321 145.04976 5588 ft 292 kts 274°
2026-04-26 11:06 -37.44286 145.02481 5442 ft 280 kts 274°
2026-04-26 11:06 -37.44248 145.00050 5300 ft 276 kts 274°
2026-04-26 11:06 -37.44207 144.97633 4895 ft 282 kts 274°
2026-04-26 11:07 -37.44171 144.95140 4481 ft 288 kts 272°
2026-04-26 11:07 -37.44329 144.92625 4082 ft 288 kts 265°
2026-04-26 11:07 -37.44657 144.90213 3920 ft 278 kts 262°
2026-04-26 11:07 -37.45025 144.87888 3854 ft 264 kts 262°
2026-04-26 11:08 -37.45373 144.85663 3782 ft 252 kts 262°
2026-04-26 11:08 -37.45728 144.83548 3703 ft 242 kts 258°
2026-04-26 11:08 -37.46379 144.81651 3623 ft 236 kts 235°
2026-04-26 11:08 -37.47657 144.80411 3476 ft 235 kts 202°
2026-04-26 11:09 -37.49257 144.80162 3171 ft 237 kts 169°
2026-04-26 11:09 -37.50832 144.80734 2956 ft 231 kts 161°
2026-04-26 11:09 -37.52338 144.81194 2924 ft 215 kts 169°
2026-04-26 11:09 -37.53814 144.81453 2683 ft 211 kts 173°
2026-04-26 11:10 -37.55253 144.81682 2411 ft 210 kts 172°
2026-04-26 11:10 -37.56659 144.81940 2160 ft 195 kts 171°
2026-04-26 11:10 -37.57968 144.82185 1876 ft 183 kts 172°
2026-04-26 11:10 -37.59125 144.82390 1699 ft 170 kts 172°
2026-04-26 11:11 -37.60281 144.82596 1438 ft 160 kts 171°
2026-04-26 11:11 -37.61362 144.82794 1244 ft 158 kts 172°
2026-04-26 11:11 -37.62457 144.82993 1032 ft 156 kts 172°
2026-04-26 11:11 -37.63514 144.83183 827 ft 153 kts 172°
2026-04-26 11:12 -37.64565 144.83368 617 ft 150 kts 173°
2026-04-26 11:12 -37.65585 144.83548 452 ft 147 kts 172°
2026-04-26 11:12 -37.66450 144.83707 441 ft 93 kts 172°
2026-04-26 11:12 -37.66898 144.83794 441 ft 41 kts 166°
2026-04-26 11:13 -37.67096 144.83922 441 ft 24 kts 142°
2026-04-26 11:13 -37.67191 144.84018 441 ft 15 kts 138°
2026-04-26 11:13 -37.67222 144.84137 441 ft 14 kts 87°
2026-04-26 11:13 -37.67212 144.84261 441 ft 13 kts 83°
2026-04-26 11:14 -37.67201 144.84381 441 ft 13 kts 84°
2026-04-26 11:14 -37.67209 144.84495 441 ft 12 kts 101°
2026-04-26 11:14 -37.67201 144.84605 441 ft 12 kts 81°
2026-04-26 11:14 -37.67170 144.84644 441 ft 6 kts 358°
2026-04-26 11:15 -37.67139 144.84639 441 ft 2 kts 350°
2026-04-26 11:15 -37.67126 144.84636 441 ft 0 kts 351°
2026-04-26 11:15 -37.67123 144.84636 441 ft 0 kts 351°